Weather History for CYMX - March, 2012

Change the Weather History Date:

Thursday, March 8, 2012

  Actual Average Record
Temperature  
Mean Temperature 42 °F -  
Max Temperature 53 °F 27 °F 53 °F (2012)
Min Temperature 32 °F 11 °F -5 °F (2007)
Degree Days  
Heating Degree Days 22    
Moisture  
Dew Point 37 °F    
Average Humidity 75    
Maximum Humidity 100    
Minimum Humidity 47    
Precipitation  
Precipitation 0.00 in - - ()
Sea Level Pressure  
Sea Level Pressure 29.72 in    
Wind  
Wind Speed 9 mph ()    
Max Wind Speed 20 mph    
Max Gust Speed 32 mph    
Visibility 6.9 miles    
Events Rain , Snow    
Averages and records for this station are not official NWS values.
T = Trace of Precipitation, MM = Missing Value Source: Averaged Metar Reports

Daily Weather History Graph

Daily Weather History Graph

Search for Another Location

Airport or City:

Trip Planner

Search our weather history database for the weather conditions in past years. The results will help you decide how hot, cold, wet, or windy it might be!

Date:

Astronomy

Mar. 08, 2012 Rise Set
Actual Time 6:21 AM EST 5:53 PM EST
Civil Twilight 5:51 AM EST 6:22 PM EST
Nautical Twilight 5:17 AM EST 6:57 PM EST
Astronomical Twilight 4:42 AM EST 7:32 PM EST
Moon 6:43 PM EST (3/8) 6:00 AM EST (3/8)
Length of Visible Light 12h 31m
Length of Day
11h 32m
Full, 100% of the Moon is Illuminated
Mar 8
Full
Mar 14
Last Quarter
Mar 22
New
Mar 30
First Quarter
Apr 6
Full

Hourly Weather History & Observations

Time (EST) Temp. Windchill Dew Point Humidity Pressure Visibility Wind Dir Wind Speed Gust Speed Precip Events Conditions
12:00 AM 44.6 °F 39.2 °F 32.0 °F 61% 29.95 in 25.0 mi SSW 10.4 mph - N/A   Mostly Cloudy
1:00 AM 48.2 °F - 32.0 °F 54% 29.92 in 25.0 mi SW 8.1 mph - N/A   Overcast
2:00 AM 48.2 °F - 32.0 °F 54% 29.90 in 25.0 mi WSW 6.9 mph - N/A   Overcast
3:00 AM 48.2 °F - 32.0 °F 54% 29.86 in 25.0 mi WSW 5.8 mph - N/A   Overcast
4:00 AM 51.8 °F - 32.0 °F 47% 29.84 in 25.0 mi SW 8.1 mph - N/A   Overcast
5:00 AM 50.0 °F - 32.0 °F 50% 29.82 in 25.0 mi SW 5.8 mph - N/A   Overcast
6:00 AM 50.0 °F - 32.0 °F 50% 29.81 in 25.0 mi SW 6.9 mph - N/A   Overcast
7:00 AM 50.0 °F - 33.8 °F 54% 29.79 in 25.0 mi SW 8.1 mph - N/A   Overcast
8:00 AM 51.8 °F - 33.8 °F 50% 29.76 in 45.0 mi SW 6.9 mph - N/A   Overcast
9:00 AM 51.8 °F - 35.6 °F 54% 29.74 in 45.0 mi SW 11.5 mph 18.4 mph N/A   Overcast
10:00 AM 53.6 °F - 37.4 °F 54% 29.72 in 25.0 mi SW 12.7 mph 19.6 mph N/A   Overcast
10:25 AM 51.8 °F - 37.4 °F 58% - 45.0 mi SW 6.9 mph - N/A Rain Light Rain
11:00 AM 51.8 °F - 39.2 °F 62% 29.70 in 25.0 mi SW 8.1 mph - N/A Rain Light Rain
12:00 PM 51.8 °F - 41.0 °F 67% 29.68 in 5.0 mi WSW 8.1 mph - N/A Rain Light Rain
1:00 PM 51.8 °F - 42.8 °F 71% 29.63 in 20.0 mi SW 15.0 mph 26.5 mph N/A Rain Light Rain
2:00 PM 51.8 °F - 44.6 °F 76% 29.61 in 20.0 mi SSW 19.6 mph 32.2 mph N/A Rain Light Rain
3:00 PM 48.2 °F - 46.4 °F 93% 29.60 in 5.0 mi SSW 18.4 mph 28.8 mph N/A Rain Light Rain
4:00 PM 48.2 °F - 46.4 °F 93% 29.58 in 15.0 mi SW 17.3 mph 25.3 mph N/A Rain Light Rain
4:53 PM 48.2 °F - 46.4 °F 93% - 2.5 mi SW 18.4 mph 26.5 mph N/A Rain Light Rain
5:00 PM 46.4 °F 39.2 °F 46.4 °F 100% 29.56 in 2.5 mi SSW 18.4 mph 26.5 mph N/A Rain Light Rain
5:14 PM 48.2 °F - 46.4 °F 93% - 1.5 mi SW 10.4 mph 25.3 mph N/A Rain Light Rain
6:00 PM 44.6 °F 37.8 °F 44.6 °F 100% 29.57 in 4.0 mi WSW 15.0 mph 27.6 mph N/A Rain Light Rain
7:00 PM 41.0 °F 34.3 °F 39.2 °F 93% 29.60 in 8.0 mi WSW 11.5 mph 20.7 mph N/A Rain Light Rain
8:00 PM 39.2 °F 30.8 °F 37.4 °F 93% 29.63 in 10.0 mi WSW 15.0 mph 28.8 mph N/A Rain Light Rain
9:00 PM 37.4 °F 27.2 °F 35.6 °F 93% 29.67 in 10.0 mi West 19.6 mph 32.2 mph N/A Rain Light Rain
9:38 PM 33.8 °F 27.0 °F 32.0 °F 93% - 3.0 mi West 8.1 mph 25.3 mph N/A Rain Light Rain
9:46 PM 33.8 °F 26.4 °F 32.0 °F 93% - 3.0 mi West 9.2 mph 19.6 mph N/A Rain , Snow Light Rain
10:00 PM 33.8 °F 25.3 °F 32.0 °F 93% 29.71 in 2.5 mi West 11.5 mph 20.7 mph N/A Snow Light Snow
11:00 PM 32.0 °F 22.5 °F 32.0 °F 100% 29.74 in 1.5 mi West 12.7 mph 21.9 mph N/A Snow Light Snow
11:30 PM 32.0 °F 22.5 °F 30.2 °F 93% - 3.0 mi WSW 12.7 mph 26.5 mph N/A Snow Light Snow